Year,Month,Day,Hour,Minute,Value (Times are PST for temperature in C)
2006,12,13,01,24,6.80
2006,12,13,01,25,6.90
2006,12,13,01,26,6.90
2006,12,13,01,27,6.90
2006,12,13,01,28,6.90
2006,12,13,01,29,6.90
2006,12,13,01,30,6.90
2006,12,13,01,31,6.90
2006,12,13,01,32,6.90
2006,12,13,01,33,7.00
2006,12,13,01,34,7.00
2006,12,13,01,35,7.00
2006,12,13,01,36,7.00
2006,12,13,01,37,7.00
2006,12,13,01,38,7.00
2006,12,13,01,39,7.00
2006,12,13,01,40,7.00
2006,12,13,01,41,7.00
2006,12,13,01,42,7.00
2006,12,13,01,43,7.00
2006,12,13,01,44,7.10
2006,12,13,01,45,7.10
2006,12,13,01,46,7.10
2006,12,13,01,47,7.10
2006,12,13,01,48,7.10
2006,12,13,01,49,7.00
2006,12,13,01,50,7.00
2006,12,13,01,51,7.00
2006,12,13,01,52,7.00
2006,12,13,01,53,7.00
2006,12,13,01,54,7.00
2006,12,13,01,55,7.10
2006,12,13,01,56,7.10
2006,12,13,01,57,7.10
2006,12,13,01,58,7.20
2006,12,13,01,59,7.20
2006,12,13,02,00,7.20
2006,12,13,02,01,7.30
2006,12,13,02,02,7.30
2006,12,13,02,03,7.30
2006,12,13,02,04,7.30
2006,12,13,02,05,7.30
2006,12,13,02,06,7.30
2006,12,13,02,07,7.30
2006,12,13,02,08,7.30
2006,12,13,02,09,7.30
2006,12,13,02,10,7.20
2006,12,13,02,11,7.20
2006,12,13,02,12,7.20
2006,12,13,02,13,7.20
2006,12,13,02,14,7.20
2006,12,13,02,15,7.20
2006,12,13,02,16,7.20
2006,12,13,02,17,7.30
2006,12,13,02,18,7.30
2006,12,13,02,19,7.30
2006,12,13,02,20,7.30
2006,12,13,02,21,7.30
2006,12,13,02,22,7.30
2006,12,13,02,23,7.30
2006,12,13,02,24,7.30
2006,12,13,02,25,7.30
2006,12,13,02,26,7.30
2006,12,13,02,27,7.30
2006,12,13,02,28,7.30
2006,12,13,02,29,7.30
2006,12,13,02,30,7.30
2006,12,13,02,31,7.30
2006,12,13,02,32,7.30
2006,12,13,02,33,7.30
2006,12,13,02,34,7.30
2006,12,13,02,35,7.30
2006,12,13,02,36,7.30
2006,12,13,02,37,7.30
2006,12,13,02,38,7.20
2006,12,13,02,39,7.20
2006,12,13,02,40,7.20
2006,12,13,02,41,7.20
2006,12,13,02,42,7.20
2006,12,13,02,43,7.20
2006,12,13,02,44,7.20
2006,12,13,02,45,7.20
2006,12,13,02,46,7.20
2006,12,13,02,47,7.20
2006,12,13,02,48,7.30
2006,12,13,02,49,7.30
2006,12,13,02,50,7.40
2006,12,13,02,51,7.50
2006,12,13,02,52,7.60
2006,12,13,02,53,7.60
2006,12,13,02,54,7.80
2006,12,13,02,55,7.80
2006,12,13,02,56,7.90
2006,12,13,02,57,8.00
2006,12,13,02,58,8.00
2006,12,13,02,59,8.00
2006,12,13,03,00,8.10
2006,12,13,03,01,8.10
2006,12,13,03,02,8.20
2006,12,13,03,03,8.20
2006,12,13,03,04,8.30
2006,12,13,03,05,8.30
2006,12,13,03,06,8.40
2006,12,13,03,07,8.40
2006,12,13,03,08,8.50
2006,12,13,03,09,8.60
2006,12,13,03,10,8.60
2006,12,13,03,11,8.60
2006,12,13,03,12,8.60
2006,12,13,03,13,8.70
2006,12,13,03,14,8.70
2006,12,13,03,15,8.70
2006,12,13,03,16,8.70
2006,12,13,03,17,8.70
2006,12,13,03,18,8.70
2006,12,13,03,19,8.70
2006,12,13,03,20,8.70
2006,12,13,03,21,8.80
2006,12,13,03,22,8.80
2006,12,13,03,23,8.90
2006,12,13,03,24,9.00
2006,12,13,03,25,9.10
2006,12,13,03,26,9.20
2006,12,13,03,27,9.30
2006,12,13,03,28,9.30
2006,12,13,03,29,9.40
2006,12,13,03,30,9.40
2006,12,13,03,31,9.40
2006,12,13,03,32,9.40
2006,12,13,03,33,9.40
2006,12,13,03,34,9.40
2006,12,13,03,35,9.40
2006,12,13,03,36,9.40
2006,12,13,03,37,9.40
2006,12,13,03,38,9.30
2006,12,13,03,39,9.30
2006,12,13,03,40,9.30
2006,12,13,03,41,9.30
2006,12,13,03,42,9.30
2006,12,13,03,43,9.40
2006,12,13,03,44,9.40
2006,12,13,03,45,9.40
2006,12,13,03,46,9.40
2006,12,13,03,47,9.50
2006,12,13,03,48,9.50
2006,12,13,03,49,9.60
2006,12,13,03,50,9.60
2006,12,13,03,51,9.60
2006,12,13,03,52,9.60
2006,12,13,03,53,9.60
2006,12,13,03,54,9.60
2006,12,13,03,55,9.60
2006,12,13,03,56,9.60
2006,12,13,03,57,9.50
2006,12,13,03,58,9.50
2006,12,13,03,59,9.50
2006,12,13,04,00,9.50
2006,12,13,04,01,9.50
2006,12,13,04,02,9.50
2006,12,13,04,03,9.50
2006,12,13,04,04,9.50
2006,12,13,04,05,9.40
2006,12,13,04,06,9.40
2006,12,13,04,07,9.30
2006,12,13,04,08,9.30
2006,12,13,04,09,9.30
2006,12,13,04,10,9.20
2006,12,13,04,11,9.20
2006,12,13,04,12,9.20
2006,12,13,04,13,9.20
2006,12,13,04,14,9.20
2006,12,13,04,15,9.20
2006,12,13,04,16,9.10
2006,12,13,04,17,9.10
2006,12,13,04,18,9.10
2006,12,13,04,19,9.10
2006,12,13,04,20,9.10
2006,12,13,04,21,9.10
2006,12,13,04,22,9.10
2006,12,13,04,23,9.10
2006,12,13,04,24,9.10
2006,12,13,04,25,9.10
2006,12,13,04,26,9.10
2006,12,13,04,27,9.10
2006,12,13,04,28,9.20
2006,12,13,04,29,9.20
2006,12,13,04,30,9.20
2006,12,13,04,31,9.20
2006,12,13,04,32,9.20
2006,12,13,04,33,9.10
2006,12,13,04,34,9.10
2006,12,13,04,35,9.10
2006,12,13,04,36,9.10
2006,12,13,04,37,9.10
2006,12,13,04,38,9.10
2006,12,13,04,39,9.10
2006,12,13,04,40,9.00
2006,12,13,04,41,9.00
2006,12,13,04,42,9.00
2006,12,13,04,43,9.00
2006,12,13,04,44,9.00
2006,12,13,04,45,9.00
2006,12,13,04,46,9.00
2006,12,13,04,47,9.00
2006,12,13,04,48,9.00
2006,12,13,04,49,9.00
2006,12,13,04,50,9.00
2006,12,13,04,51,8.90
2006,12,13,04,52,8.90
2006,12,13,04,53,8.90
2006,12,13,04,54,8.90
2006,12,13,04,55,8.80
2006,12,13,04,56,8.90
2006,12,13,04,57,8.90
2006,12,13,04,58,9.00
2006,12,13,04,59,9.00
2006,12,13,05,00,9.00
2006,12,13,05,01,9.00
2006,12,13,05,02,8.90
2006,12,13,05,03,8.90
2006,12,13,05,04,8.90
2006,12,13,05,05,8.90
2006,12,13,05,06,8.90
2006,12,13,05,07,8.90
2006,12,13,05,08,8.90
2006,12,13,05,09,8.90
2006,12,13,05,10,8.90
2006,12,13,05,11,8.80
2006,12,13,05,12,8.80
2006,12,13,05,13,8.80
2006,12,13,05,14,8.80
2006,12,13,05,15,8.90
2006,12,13,05,16,8.90
2006,12,13,05,17,8.80
2006,12,13,05,18,8.80
2006,12,13,05,19,8.80
2006,12,13,05,20,8.80
2006,12,13,05,21,8.80
2006,12,13,05,22,8.80
2006,12,13,05,23,8.80
2006,12,13,05,24,8.80
2006,12,13,05,25,8.80
2006,12,13,05,26,8.80
2006,12,13,05,27,8.80
2006,12,13,05,28,8.70
2006,12,13,05,29,8.70
2006,12,13,05,30,8.70
2006,12,13,05,31,8.70
2006,12,13,05,32,8.70
2006,12,13,05,33,8.70
2006,12,13,05,34,8.70
2006,12,13,05,35,8.70
2006,12,13,05,36,8.70
2006,12,13,05,37,8.80
2006,12,13,05,38,8.80
2006,12,13,05,39,8.80
2006,12,13,05,40,8.80
2006,12,13,05,41,8.90
2006,12,13,05,42,8.90
2006,12,13,05,43,8.90
2006,12,13,05,44,8.90
2006,12,13,05,45,8.80
2006,12,13,05,46,8.90
2006,12,13,05,47,8.90
2006,12,13,05,48,8.90
2006,12,13,05,49,8.80
2006,12,13,05,50,8.80
2006,12,13,05,51,8.80
2006,12,13,05,52,8.80
2006,12,13,05,53,8.80
2006,12,13,05,54,8.80
2006,12,13,05,55,8.80
2006,12,13,05,56,8.80
2006,12,13,05,57,8.90
2006,12,13,05,58,8.90
2006,12,13,05,59,8.90
2006,12,13,06,00,8.90
2006,12,13,06,01,8.90
2006,12,13,06,02,8.90
2006,12,13,06,03,8.90
2006,12,13,06,04,8.90
2006,12,13,06,05,9.00
2006,12,13,06,06,9.00
2006,12,13,06,07,9.00
2006,12,13,06,08,9.00
2006,12,13,06,09,9.00
2006,12,13,06,10,9.00
2006,12,13,06,11,9.10
2006,12,13,06,12,9.10
2006,12,13,06,13,9.10
2006,12,13,06,14,9.10
2006,12,13,06,15,9.10
2006,12,13,06,16,9.10
2006,12,13,06,17,9.20
2006,12,13,06,18,9.20
2006,12,13,06,19,9.20
2006,12,13,06,20,9.20
2006,12,13,06,21,9.20
2006,12,13,06,22,9.10
2006,12,13,06,23,9.10
2006,12,13,06,24,9.10
2006,12,13,06,25,9.10
2006,12,13,06,26,9.10
2006,12,13,06,27,9.10
2006,12,13,06,28,9.10
2006,12,13,06,29,9.10
2006,12,13,06,30,9.10
2006,12,13,06,31,9.00
2006,12,13,06,32,9.00
2006,12,13,06,33,9.00
2006,12,13,06,34,9.00
2006,12,13,06,35,9.00
2006,12,13,06,36,9.10
2006,12,13,06,37,9.10
2006,12,13,06,38,9.10
2006,12,13,06,39,9.20
2006,12,13,06,40,9.20
2006,12,13,06,41,9.20
2006,12,13,06,42,9.20
2006,12,13,06,43,9.20
2006,12,13,06,44,9.10
2006,12,13,06,45,9.10
2006,12,13,06,46,9.00
2006,12,13,06,47,8.90
2006,12,13,06,48,8.90
2006,12,13,06,49,8.80
2006,12,13,06,50,8.70
2006,12,13,06,51,8.70
2006,12,13,06,52,8.60
2006,12,13,06,53,8.60
2006,12,13,06,54,8.60
2006,12,13,06,55,8.60
2006,12,13,06,56,8.60
2006,12,13,06,57,8.60
2006,12,13,06,58,8.60
2006,12,13,06,59,8.60
2006,12,13,07,00,8.60
2006,12,13,07,01,8.50
2006,12,13,07,02,8.50
2006,12,13,07,03,8.40
2006,12,13,07,04,8.50
2006,12,13,07,05,8.50
2006,12,13,07,06,8.60
2006,12,13,07,07,8.60
2006,12,13,07,08,8.60
2006,12,13,07,09,8.60
2006,12,13,07,10,8.50
2006,12,13,07,11,8.50
2006,12,13,07,12,8.50
2006,12,13,07,13,8.50
2006,12,13,07,14,8.50
2006,12,13,07,15,8.50
2006,12,13,07,16,8.50
2006,12,13,07,17,8.50
2006,12,13,07,18,8.50
2006,12,13,07,19,8.60
2006,12,13,07,20,8.60
2006,12,13,07,21,8.50
2006,12,13,07,22,8.50
2006,12,13,07,23,8.50
2006,12,13,07,24,8.50
2006,12,13,07,25,8.50
2006,12,13,07,26,8.40
2006,12,13,07,27,8.40
2006,12,13,07,28,8.40
2006,12,13,07,29,8.40
2006,12,13,07,30,8.40
2006,12,13,07,31,8.50
2006,12,13,07,32,8.60
2006,12,13,07,33,8.60
2006,12,13,07,34,8.60
2006,12,13,07,35,8.70
2006,12,13,07,36,8.70
2006,12,13,07,37,8.70
2006,12,13,07,38,8.70
2006,12,13,07,39,8.70
2006,12,13,07,40,8.80
2006,12,13,07,41,8.80
2006,12,13,07,42,8.80
2006,12,13,07,43,8.80
2006,12,13,08,45,9.00
2006,12,13,08,46,9.10
2006,12,13,08,47,9.10
2006,12,13,08,48,9.00
2006,12,13,08,49,9.00
2006,12,13,08,50,9.00
2006,12,13,08,51,9.00
2006,12,13,08,52,8.90
2006,12,13,08,53,8.90
2006,12,13,08,54,8.90
2006,12,13,08,55,8.80
2006,12,13,08,56,8.70
2006,12,13,08,57,8.70
2006,12,13,08,58,8.70
2006,12,13,08,59,8.70
2006,12,13,09,00,8.70
2006,12,13,09,01,8.70
2006,12,13,09,02,8.70
2006,12,13,09,03,8.80
2006,12,13,09,04,8.80
2006,12,13,09,05,8.80
2006,12,13,09,06,8.70
2006,12,13,09,07,8.70
2006,12,13,09,08,8.60
2006,12,13,09,09,8.60
2006,12,13,09,10,8.60
2006,12,13,09,11,8.50
2006,12,13,09,12,8.50
2006,12,13,09,13,8.40
2006,12,13,09,14,8.40
2006,12,13,09,15,8.30
2006,12,13,09,16,8.30
2006,12,13,09,17,8.30
2006,12,13,09,18,8.20
2006,12,13,09,19,8.20
2006,12,13,09,20,8.20
2006,12,13,09,21,8.20
2006,12,13,09,22,8.20
2006,12,13,09,23,8.20
2006,12,13,09,24,8.20
2006,12,13,09,25,8.20
2006,12,13,09,26,8.20
2006,12,13,09,27,8.20
2006,12,13,09,28,8.30
2006,12,13,09,29,8.30
2006,12,13,09,30,8.40
2006,12,13,09,31,8.50
2006,12,13,09,32,8.50
2006,12,13,09,33,8.50
2006,12,13,09,34,8.50
2006,12,13,09,35,8.50
2006,12,13,09,36,8.50
2006,12,13,09,37,8.40
2006,12,13,09,38,8.40
2006,12,13,09,39,8.40
2006,12,13,09,40,8.50
2006,12,13,09,41,8.40
2006,12,13,09,42,8.40
2006,12,13,09,43,8.40
2006,12,13,09,44,8.40
2006,12,13,09,45,8.50
2006,12,13,09,46,8.50
2006,12,13,09,47,8.50
2006,12,13,09,48,8.50
2006,12,13,09,49,8.60
2006,12,13,09,50,8.60
2006,12,13,09,51,8.60
2006,12,13,09,52,8.50
2006,12,13,09,53,8.50
2006,12,13,09,54,8.40
2006,12,13,09,55,8.40
2006,12,13,09,56,8.40
2006,12,13,09,57,8.40
2006,12,13,09,58,8.40
2006,12,13,09,59,8.40
2006,12,13,10,00,8.30
2006,12,13,10,01,8.30
2006,12,13,10,02,8.30
2006,12,13,10,03,8.40
2006,12,13,10,04,8.40
2006,12,13,10,05,8.40
2006,12,13,10,06,8.40
2006,12,13,10,07,8.50
2006,12,13,10,08,8.50
2006,12,13,10,09,8.50
2006,12,13,10,10,8.50
2006,12,13,10,11,8.50
2006,12,13,10,12,8.60
2006,12,13,10,13,8.60
2006,12,13,10,14,8.60
2006,12,13,10,15,8.70
2006,12,13,10,16,8.70
2006,12,13,10,17,8.80
2006,12,13,10,18,8.90
2006,12,13,10,19,8.90
2006,12,13,10,20,8.90
2006,12,13,10,21,8.90
2006,12,13,10,22,8.90
2006,12,13,10,23,8.90
2006,12,13,10,24,8.90
2006,12,13,10,25,8.90
2006,12,13,10,26,9.00
2006,12,13,10,27,9.00
2006,12,13,10,28,9.00
2006,12,13,10,29,9.10
2006,12,13,10,30,9.10
2006,12,13,10,31,9.20
2006,12,13,10,32,9.20
2006,12,13,10,33,9.20
2006,12,13,10,34,9.20
2006,12,13,10,35,9.20
2006,12,13,10,36,9.20
2006,12,13,10,37,9.20
2006,12,13,10,38,9.30
2006,12,13,10,39,9.30
2006,12,13,10,40,9.40
2006,12,13,10,41,9.40
2006,12,13,10,42,9.40
2006,12,13,10,43,9.40
2006,12,13,10,47,9.00
2006,12,13,10,48,8.90
2006,12,13,10,49,8.90
2006,12,13,10,50,8.80
2006,12,13,10,51,8.80
2006,12,13,10,52,8.80
2006,12,13,10,53,8.90
2006,12,13,10,54,8.90
2006,12,13,10,55,9.00
2006,12,13,10,56,9.10
2006,12,13,10,57,9.10
2006,12,13,10,58,9.20
2006,12,13,10,59,9.20
2006,12,13,11,00,9.20
2006,12,13,11,01,9.20
2006,12,13,11,02,9.20
2006,12,13,11,03,9.20
2006,12,13,11,04,9.30
2006,12,13,11,05,9.30
2006,12,13,11,06,9.30
2006,12,13,11,07,9.40
2006,12,13,11,08,9.40
2006,12,13,11,09,9.40
2006,12,13,11,10,9.40
2006,12,13,11,11,9.40
2006,12,13,11,12,9.30
2006,12,13,11,13,9.20
2006,12,13,11,14,9.20
2006,12,13,11,15,9.10
2006,12,13,11,16,9.10
2006,12,13,11,17,9.10
2006,12,13,11,18,9.00
2006,12,13,11,19,9.00
2006,12,13,11,20,8.90
2006,12,13,11,21,8.90
2006,12,13,11,22,8.80
2006,12,13,11,23,8.80
2006,12,13,11,24,8.80
2006,12,13,11,25,8.80
2006,12,13,11,26,8.90
2006,12,13,11,27,8.90
2006,12,13,11,28,9.00
2006,12,13,11,29,9.00
2006,12,13,11,30,9.10
2006,12,13,11,31,9.10
2006,12,13,11,32,9.20
2006,12,13,11,33,9.20
2006,12,13,11,34,9.10
2006,12,13,11,38,8.90
2006,12,13,11,39,8.90
2006,12,13,11,40,8.80
2006,12,13,11,41,8.70
2006,12,13,11,42,8.60
2006,12,13,11,43,8.50
2006,12,13,11,44,8.30
2006,12,13,11,45,8.20
2006,12,13,11,46,8.20
2006,12,13,11,47,8.20
2006,12,13,11,48,8.20
2006,12,13,11,49,8.20
2006,12,13,11,50,8.30
2006,12,13,11,51,8.40
2006,12,13,11,52,8.40
2006,12,13,11,53,8.50
2006,12,13,11,54,8.60
2006,12,13,11,55,8.70
2006,12,13,11,56,8.70
2006,12,13,11,57,8.80
2006,12,13,11,58,8.90
2006,12,13,11,59,8.90
2006,12,13,12,00,9.00
2006,12,13,12,01,9.00
2006,12,13,12,02,9.00
2006,12,13,12,03,9.00
2006,12,13,12,04,8.90
2006,12,13,12,05,8.90
2006,12,13,12,06,8.90
2006,12,13,12,07,8.90
2006,12,13,12,08,8.80
2006,12,13,12,09,8.80
2006,12,13,12,10,8.90
2006,12,13,12,11,8.90
2006,12,13,12,12,8.90
2006,12,13,12,13,8.90
2006,12,13,12,14,8.90
2006,12,13,12,15,9.00
2006,12,13,12,16,9.00
2006,12,13,12,17,9.10
2006,12,13,12,18,9.20
2006,12,13,12,19,9.20
2006,12,13,12,20,9.20
2006,12,13,12,21,9.30
2006,12,13,12,22,9.30
2006,12,13,12,23,9.30
2006,12,13,12,24,9.40
2006,12,13,12,25,9.40
2006,12,13,12,26,9.40
2006,12,13,12,27,9.40
2006,12,13,12,28,9.40
2006,12,13,12,32,9.50
2006,12,13,12,33,9.50
2006,12,13,12,34,9.60
2006,12,13,12,35,9.60
2006,12,13,12,36,9.60
2006,12,13,12,37,9.60
2006,12,13,12,38,9.60
2006,12,13,12,39,9.60
2006,12,13,12,40,9.60
2006,12,13,12,41,9.60
2006,12,13,12,42,9.70
2006,12,13,12,43,9.70
2006,12,13,12,44,9.70
2006,12,13,12,45,9.70
2006,12,13,12,46,9.70
2006,12,13,12,47,9.70
2006,12,13,12,48,9.70
2006,12,13,12,49,9.70
2006,12,13,12,50,9.70
2006,12,13,12,51,9.70
2006,12,13,12,52,9.70
2006,12,13,12,53,9.70
2006,12,13,12,54,9.70
2006,12,13,12,55,9.80
2006,12,13,12,56,9.80
2006,12,13,12,57,9.80
2006,12,13,12,58,9.80
2006,12,13,12,59,9.80
2006,12,13,13,00,9.80
2006,12,13,13,01,9.80
2006,12,13,13,02,9.70
2006,12,13,13,03,9.70
2006,12,13,13,04,9.70
2006,12,13,13,05,9.60
2006,12,13,13,06,9.50
2006,12,13,13,07,9.50
2006,12,13,13,08,9.40
2006,12,13,13,09,9.40
2006,12,13,13,10,9.40
2006,12,13,13,11,9.30
2006,12,13,13,12,9.30
2006,12,13,13,13,9.30
2006,12,13,13,14,9.20
2006,12,13,13,15,9.20
2006,12,13,13,16,9.20
2006,12,13,13,17,9.20
2006,12,13,13,18,9.20
2006,12,13,13,19,9.20
2006,12,13,13,20,9.10
2006,12,13,13,21,9.10
2006,12,13,13,22,9.10
2006,12,13,13,23,9.10
2006,12,13,13,24,9.10
2006,12,13,13,25,9.20
2006,12,13,13,26,9.20
2006,12,13,13,27,9.20
2006,12,13,13,28,9.20
2006,12,13,13,29,9.20
2006,12,13,13,30,9.20
2006,12,13,13,31,9.20
2006,12,13,13,32,9.30
2006,12,13,13,33,9.40
2006,12,13,13,34,9.40
2006,12,13,13,35,9.50
2006,12,13,13,36,9.50
2006,12,13,13,37,9.60
2006,12,13,13,38,9.60
2006,12,13,13,39,9.60
2006,12,13,13,40,9.60
2006,12,13,13,41,9.70
2006,12,13,13,42,9.70
2006,12,13,13,43,9.70
2006,12,13,13,44,9.70
2006,12,13,13,45,9.70
2006,12,13,13,46,9.70
2006,12,13,13,47,9.70
2006,12,13,13,48,9.70
2006,12,13,13,49,9.70
2006,12,13,13,50,9.70
2006,12,13,13,51,9.70
2006,12,13,13,52,9.70
2006,12,13,13,53,9.70
2006,12,13,13,54,9.70
2006,12,13,13,55,9.70
2006,12,13,13,56,9.70
2006,12,13,13,57,9.70
2006,12,13,13,58,9.70
2006,12,13,13,59,9.70
2006,12,13,14,00,9.70
2006,12,13,14,01,9.70
2006,12,13,14,02,9.60
2006,12,13,14,03,9.60
2006,12,13,14,04,9.60
2006,12,13,14,05,9.50
2006,12,13,14,06,9.50
2006,12,13,14,07,9.40
2006,12,13,14,08,9.40
2006,12,13,14,09,9.30
2006,12,13,14,10,9.30
2006,12,13,14,11,9.20
2006,12,13,14,12,9.20
2006,12,13,14,13,9.20
2006,12,13,14,14,9.20
2006,12,13,14,15,9.20
2006,12,13,14,16,9.10
2006,12,13,14,17,9.10
2006,12,13,14,18,9.00
2006,12,13,14,19,9.00
2006,12,13,14,20,9.00
2006,12,13,14,21,9.00
2006,12,13,14,22,9.00
2006,12,13,14,23,9.00
2006,12,13,14,24,8.90
2006,12,13,14,25,8.90
2006,12,13,14,26,8.90
2006,12,13,14,27,8.90
2006,12,13,14,28,8.90
2006,12,13,14,29,8.90
2006,12,13,14,30,8.90
2006,12,13,14,31,8.90
2006,12,13,14,32,8.90
2006,12,13,14,33,8.90
2006,12,13,14,34,8.90
2006,12,13,14,35,8.90
2006,12,13,14,36,8.90
2006,12,13,14,37,8.90
2006,12,13,14,38,8.90
2006,12,13,14,39,8.80
2006,12,13,14,40,8.70
2006,12,13,14,41,8.60
2006,12,13,14,42,8.50
2006,12,13,14,43,8.30
2006,12,13,14,44,8.20
2006,12,13,14,45,8.10
2006,12,13,14,46,8.10
2006,12,13,14,47,8.10
2006,12,13,14,48,8.10
2006,12,13,14,49,8.10
2006,12,13,14,50,8.10
2006,12,13,14,51,8.10
2006,12,13,14,52,8.20
2006,12,13,14,53,8.20
2006,12,13,14,54,8.20
2006,12,13,14,55,8.20
2006,12,13,14,56,8.20
2006,12,13,14,57,8.20
2006,12,13,14,58,8.20
2006,12,13,14,59,8.20
2006,12,13,15,00,8.20
2006,12,13,15,01,8.20
2006,12,13,15,02,8.20
2006,12,13,15,03,8.20
2006,12,13,15,04,8.20
2006,12,13,15,05,8.20
2006,12,13,15,06,8.30
2006,12,13,15,07,8.30
2006,12,13,15,08,8.30
2006,12,13,15,09,8.30
2006,12,13,15,10,8.40
2006,12,13,15,11,8.40
2006,12,13,15,12,8.40
2006,12,13,15,13,8.40
2006,12,13,15,14,8.40
2006,12,13,15,15,8.40
2006,12,13,15,16,8.30
2006,12,13,15,17,8.30
2006,12,13,15,18,8.20
2006,12,13,15,19,8.20
2006,12,13,15,20,8.00
2006,12,13,15,21,7.90
2006,12,13,15,22,7.80
2006,12,13,15,23,7.80
2006,12,13,15,24,7.70
2006,12,13,15,25,7.60
2006,12,13,15,26,7.50
2006,12,13,15,27,7.50
2006,12,13,15,28,7.40
2006,12,13,15,29,7.30
2006,12,13,15,30,7.30
2006,12,13,15,31,7.30
2006,12,13,15,32,7.20
2006,12,13,15,33,7.20
2006,12,13,15,34,7.20
2006,12,13,15,35,7.20
2006,12,13,15,36,7.20
2006,12,13,15,37,7.20
2006,12,13,15,38,7.10
2006,12,13,15,39,7.10
2006,12,13,15,40,7.10
2006,12,13,15,41,7.10
2006,12,13,15,42,7.00
2006,12,13,15,43,7.00
2006,12,13,15,44,7.00
2006,12,13,15,45,7.00
2006,12,13,15,46,7.00
2006,12,13,15,47,7.00
2006,12,13,15,48,7.00
2006,12,13,15,49,7.00
2006,12,13,15,50,7.10
2006,12,13,15,51,7.10
2006,12,13,15,52,7.10
2006,12,13,15,53,7.10
2006,12,13,15,54,7.20
2006,12,13,15,55,7.20
2006,12,13,15,56,7.20
2006,12,13,15,57,7.30
2006,12,13,15,58,7.30
2006,12,13,15,59,7.30
2006,12,13,16,00,7.40
2006,12,13,16,01,7.40
2006,12,13,16,02,7.40
2006,12,13,16,03,7.60
2006,12,13,16,04,7.70
2006,12,13,16,05,7.80
2006,12,13,16,06,7.80
2006,12,13,16,07,7.80
2006,12,13,16,08,7.80
2006,12,13,16,09,7.80
2006,12,13,16,10,7.80
2006,12,13,16,11,7.70
2006,12,13,16,12,7.70
2006,12,13,16,13,7.70
2006,12,13,16,14,7.60
2006,12,13,16,15,7.50
2006,12,13,16,16,7.50
2006,12,13,16,17,7.40
2006,12,13,16,18,7.40
2006,12,13,16,19,7.30
2006,12,13,16,20,7.30
2006,12,13,16,21,7.30
2006,12,13,16,22,7.40
2006,12,13,16,23,7.40
2006,12,13,16,24,7.40
2006,12,13,16,25,7.40
2006,12,13,16,26,7.30
2006,12,13,16,27,7.30
2006,12,13,16,28,7.30
2006,12,13,16,29,7.30
2006,12,13,16,30,7.30
2006,12,13,16,31,7.30
2006,12,13,16,32,7.30
2006,12,13,16,33,7.30
2006,12,13,16,34,7.30
2006,12,13,16,35,7.30
2006,12,13,16,36,7.30
2006,12,13,16,37,7.30
2006,12,13,16,38,7.30
2006,12,13,16,39,7.30
2006,12,13,16,40,7.20
2006,12,13,16,41,7.20
2006,12,13,16,42,7.20
2006,12,13,16,43,7.20
2006,12,13,16,44,7.20
2006,12,13,16,45,7.20
2006,12,13,16,46,7.20
2006,12,13,16,47,7.20
2006,12,13,16,48,7.10
2006,12,13,16,49,7.10
2006,12,13,16,50,7.00
2006,12,13,16,51,6.80
2006,12,13,16,52,6.70
2006,12,13,16,53,6.60
2006,12,13,16,54,6.40
2006,12,13,16,55,6.30
2006,12,13,16,56,6.30
2006,12,13,16,57,6.20
2006,12,13,16,58,6.20
2006,12,13,16,59,6.00
2006,12,13,17,00,6.00
2006,12,13,17,01,5.80
2006,12,13,17,02,5.80
2006,12,13,17,03,5.70
2006,12,13,17,04,5.70
2006,12,13,17,05,5.60
2006,12,13,17,06,5.50
2006,12,13,17,07,5.50
2006,12,13,17,08,5.40
2006,12,13,17,09,5.40
2006,12,13,17,10,5.30
2006,12,13,17,11,5.30
2006,12,13,17,12,5.30
2006,12,13,17,13,5.30
2006,12,13,17,14,5.30
2006,12,13,17,15,5.20
2006,12,13,17,16,5.20
2006,12,13,17,17,5.20
2006,12,13,17,18,5.10
2006,12,13,17,19,5.10
2006,12,13,17,20,5.10
2006,12,13,17,21,5.10
2006,12,13,17,22,5.10
2006,12,13,17,23,5.10
2006,12,13,17,24,5.10
2006,12,13,17,25,5.10
2006,12,13,17,26,5.10
2006,12,13,17,27,5.10
2006,12,13,17,28,5.10
2006,12,13,17,29,5.10
2006,12,13,17,30,5.10
2006,12,13,17,31,5.10
2006,12,13,17,32,5.10
2006,12,13,17,33,5.10
2006,12,13,17,34,5.10
2006,12,13,17,35,5.00
2006,12,13,17,36,4.90
2006,12,13,17,37,5.10
2006,12,13,17,38,5.10
2006,12,13,17,39,5.10
2006,12,13,17,40,5.10
2006,12,13,17,41,5.10
2006,12,13,17,42,5.10
2006,12,13,17,43,5.10
2006,12,13,17,44,5.10
2006,12,13,17,45,5.10
2006,12,13,17,46,5.10
2006,12,13,17,47,5.10
2006,12,13,17,48,5.10
2006,12,13,17,49,5.10
2006,12,13,17,50,5.10
2006,12,13,17,51,5.10
2006,12,13,17,52,5.10
2006,12,13,17,53,5.10
2006,12,13,17,54,5.10
2006,12,13,17,55,5.10
2006,12,13,17,56,5.10
2006,12,13,17,57,5.00
2006,12,13,17,58,4.90
2006,12,13,17,59,4.90
2006,12,13,18,00,4.80
2006,12,13,18,01,4.70
2006,12,13,18,02,4.70
2006,12,13,18,03,4.60
2006,12,13,18,04,4.60
2006,12,13,18,05,4.60
2006,12,13,18,06,4.50
2006,12,13,18,07,4.40
2006,12,13,18,08,4.40
2006,12,13,18,09,4.40
2006,12,13,18,10,4.40
2006,12,13,18,11,4.40
2006,12,13,18,12,4.30
2006,12,13,18,13,4.30
2006,12,13,18,14,4.30
2006,12,13,18,15,4.30
2006,12,13,18,16,4.20
2006,12,13,18,17,4.20
2006,12,13,18,18,4.20
2006,12,13,18,19,4.20
2006,12,13,18,20,4.20
2006,12,13,18,21,4.20
2006,12,13,18,22,4.20
2006,12,13,18,23,4.30
2006,12,13,18,24,4.30
2006,12,13,18,25,4.40
2006,12,13,18,26,4.40
2006,12,13,18,27,4.40
2006,12,13,18,28,4.40
2006,12,13,18,29,4.40
2006,12,13,18,30,4.40
2006,12,13,18,31,4.50
2006,12,13,18,32,4.50
2006,12,13,18,33,4.50
2006,12,13,18,34,4.60
2006,12,13,18,35,4.60
2006,12,13,18,36,4.60
2006,12,13,18,37,4.60
2006,12,13,18,38,4.60
2006,12,13,18,39,4.50
2006,12,13,18,40,4.50
2006,12,13,18,41,4.50
2006,12,13,18,42,4.60
2006,12,13,18,43,4.60
2006,12,13,18,44,4.60
2006,12,13,18,45,4.60
2006,12,13,18,46,4.70
2006,12,13,18,47,4.90
2006,12,13,18,48,4.90
2006,12,13,18,49,4.90
2006,12,13,18,50,4.90
2006,12,13,18,51,4.90
2006,12,13,18,52,4.90
2006,12,13,18,53,4.90
2006,12,13,18,54,4.90
2006,12,13,18,55,4.90
2006,12,13,18,56,5.10
2006,12,13,18,57,5.10
2006,12,13,18,58,5.10
2006,12,13,18,59,5.10
2006,12,13,19,00,5.10
2006,12,13,19,01,5.10
2006,12,13,19,02,5.10
2006,12,13,19,03,5.10
2006,12,13,19,04,5.10
2006,12,13,19,05,5.10
2006,12,13,19,06,5.00
2006,12,13,19,07,4.90
2006,12,13,19,08,4.90
2006,12,13,19,09,4.90
2006,12,13,19,10,4.90
2006,12,13,19,11,4.90
2006,12,13,19,12,4.90
2006,12,13,19,13,4.90
2006,12,13,19,14,4.90
2006,12,13,19,15,4.90
2006,12,13,19,16,4.90
2006,12,13,19,17,4.90
2006,12,13,19,18,4.90
2006,12,13,19,19,4.90
2006,12,13,19,20,4.90
2006,12,13,19,21,4.90
2006,12,13,19,22,4.90
2006,12,13,19,23,4.80
2006,12,13,19,24,4.80
2006,12,13,19,25,4.80
2006,12,13,19,26,4.80
2006,12,13,19,27,4.80
2006,12,13,19,28,4.70
2006,12,13,19,29,4.70
2006,12,13,19,30,4.70
2006,12,13,19,31,4.60
2006,12,13,19,32,4.60
2006,12,13,19,33,4.60
2006,12,13,19,34,4.60
2006,12,13,19,35,4.60
2006,12,13,19,36,4.80
2006,12,13,19,37,4.90
2006,12,13,19,38,5.10
2006,12,13,19,39,5.10
2006,12,13,19,40,5.10
2006,12,13,19,41,5.10
2006,12,13,19,42,5.10
2006,12,13,19,43,5.10
2006,12,13,19,44,5.00
2006,12,13,19,45,4.90
2006,12,13,19,46,4.90
2006,12,13,19,47,4.90
2006,12,13,19,48,4.90
2006,12,13,19,49,4.80
2006,12,13,19,50,4.80
2006,12,13,19,51,4.80
2006,12,13,19,52,4.80
2006,12,13,19,53,4.80
2006,12,13,19,54,4.80
2006,12,13,19,55,4.80
2006,12,13,19,56,4.80
2006,12,13,19,57,4.80
2006,12,13,19,58,4.80
2006,12,13,19,59,4.80
2006,12,13,20,00,4.80
2006,12,13,20,01,4.90
2006,12,13,20,02,5.00
2006,12,13,20,03,5.10
2006,12,13,20,04,5.10
2006,12,13,20,05,5.10
2006,12,13,20,06,5.10
2006,12,13,20,07,5.20
2006,12,13,20,08,5.20
2006,12,13,20,09,5.30
2006,12,13,20,10,5.30
2006,12,13,20,11,5.30
2006,12,13,20,12,5.30
2006,12,13,20,13,5.30
2006,12,13,20,14,5.30
2006,12,13,20,15,5.30
2006,12,13,20,16,5.30
2006,12,13,20,17,5.30
2006,12,13,20,18,5.30
2006,12,13,20,19,5.30
2006,12,13,20,20,5.40
2006,12,13,20,21,5.40
2006,12,13,20,22,5.40
2006,12,13,20,23,5.40
2006,12,13,20,24,5.40
2006,12,13,20,25,5.40
2006,12,13,20,26,5.40
2006,12,13,20,27,5.50
2006,12,13,20,28,5.50
2006,12,13,20,29,5.50
2006,12,13,20,30,5.60
2006,12,13,20,31,5.60
2006,12,13,20,32,5.50
2006,12,13,20,33,5.50
2006,12,13,20,34,5.40
2006,12,13,20,35,5.30
2006,12,13,20,36,5.30
2006,12,13,20,37,5.30
2006,12,13,20,38,5.30
2006,12,13,20,39,5.30
2006,12,13,20,40,5.30